[[{"header":{"parameterUnit":"m.s-1","parameterCategory":1,"la1":30.2992,"la2":30.254,"lo1":-89.0895,"lo2":-89.0443,"dy":0.0025,"dx":0.0025,"nx":19,"ny":19,"refTime":"2026-05-06T09:00:00:Z","depth":0,"parameterNumber":2,"parameterNumberName":"U-component_of_WINDS"},"data":[0,0,0,4.9205,4.9208,4.9377,4.9378,4.96,4.9602,0,0,0,0,0,0,0,0,0,0,0,4.916,4.9162,4.9204,4.9209,4.9377,4.9378,4.96,4.9602,0,0,0,0,0,0,0,0,0,0,0,4.9159,4.9161,4.9164,4.921,4.9377,4.9378,4.9599,4.9469,0,0,0,0,0,0,0,0,0,0,4.9305,4.9269,4.9161,4.9164,4.9211,4.9377,4.9378,4.9463,4.9477,4.9527,0,4.9573,0,4.9591,4.9617,4.9618,0,0,0,4.9205,4.9257,4.9298,4.9164,4.9212,4.9377,4.93,4.9471,4.9487,4.9546,4.9577,4.9585,4.9595,4.9619,4.962,4.992,4.9922,0,0,4.9195,4.9193,4.9286,4.9308,4.9284,4.9295,4.9305,4.9481,4.9513,4.9577,4.959,4.9599,4.9621,4.9622,4.9919,4.992,0,0,0,4.9172,4.9187,4.9223,4.93,4.9329,4.93,4.9312,4.9505,4.9517,4.9592,4.9601,4.9622,4.9625,4.9917,4.9919,4.9994,0,0,0,4.9166,4.9173,4.9219,4.922,4.9326,4.942,4.9333,4.9505,4.9525,4.96,4.9622,4.9627,4.9915,4.9918,4.9989,5.003,0,0,0,4.9147,4.9171,4.9197,4.9219,4.9292,4.9417,4.9439,4.951,4.9531,4.9618,4.9628,4.9914,4.9918,4.9983,5.0021,5.0106,0,0,0,4.9127,4.9263,4.9198,4.9353,4.929,4.9463,4.9438,4.9567,4.9651,4.9623,4.9915,4.9919,4.9982,5.0016,5.01,5.0175,5.0207,0,0,4.9297,4.9283,4.9374,4.9322,4.9505,4.9438,4.9632,4.9711,4.9722,4.9853,4.986,4.999,5.0021,5.0105,5.0389,5.0414,0,0,0,4.9427,4.9492,4.9542,4.9621,4.9685,4.9742,4.9792,4.9821,4.9932,4.9789,5.0045,5.0063,5.0113,5.0148,5.017,5.0211,4.9936,4.9936,4.9935,4.9663,4.9669,4.9819,4.9845,4.9923,4.9972,5.0035,5.0082,5.0066,5.0126,5.0164,5.0337,5.0378,5.0394,5.0437,5.0207,5.0207,5.0207,5.0207,4.991,5.0002,4.9977,5.0113,5.0118,5.0233,5.0285,5.0269,5.0375,5.0309,5.0352,5.0276,5.0422,5.0459,5.0213,5.0212,5.0211,5.0211,5.021,5.0063,5.0108,5.0141,5.0256,5.0343,5.0365,5.0467,5.0469,5.0471,5.0515,5.0553,5.0552,5.0549,5.0533,5.0534,5.0535,5.0535,5.0536,5.0536,5.0207,5.0242,5.0329,5.0407,5.0458,5.0524,5.0574,5.0624,5.0678,5.0671,5.0671,5.0647,5.0436,5.0381,5.0545,5.0543,5.0542,5.0541,5.0541,5.0451,5.0396,5.053,5.058,5.0671,5.0756,5.0757,5.0857,5.0898,5.0948,5.0915,5.076,5.0746,5.0729,5.0683,5.0915,5.0915,5.0915,5.0915,5.0578,5.0571,5.0707,5.0787,5.0866,5.088,5.1029,5.1069,5.1101,5.1126,5.1093,5.1034,5.1017,5.1013,5.099,5.0947,5.1241,5.1241,5.1242,5.0726,5.0727,5.0854,5.0886,5.0957,5.1017,5.1156,5.1248,5.1273,5.1255,5.1145,5.1132,5.1036,5.1005,5.0982,5.0946,5.0868,0,0]},{"header":{"parameterUnit":"m.s-1","parameterCategory":1,"la1":30.2992,"la2":30.254,"lo1":-89.0895,"lo2":-89.0443,"dy":0.0025,"dx":0.0025,"nx":19,"ny":19,"refTime":"2026-05-06T09:00:00:Z","depth":0,"parameterNumber":3,"parameterNumberName":"V-component_of_WINDS"},"data":[0,0,0,4.9883,4.9888,5.0124,5.0125,5.0423,5.0426,0,0,0,0,0,0,0,0,0,0,0,4.9812,4.9814,4.9882,4.9888,5.0124,5.0125,5.0423,5.0426,0,0,0,0,0,0,0,0,0,0,0,4.9811,4.9813,4.9816,4.9889,5.0124,5.0125,5.0422,5.0245,0,0,0,0,0,0,0,0,0,0,5.0016,4.9951,4.9813,4.9816,4.989,5.0124,5.0125,5.0237,5.0256,5.0315,0,5.0369,0,5.0402,5.0446,5.0447,0,0,0,4.9888,4.9934,4.9999,4.9816,4.9893,5.0123,5.0018,5.0247,5.027,5.0341,5.0373,5.0384,5.0407,5.0448,5.0449,5.0795,5.0796,0,0,4.9875,4.9854,4.9984,5.0013,4.9978,5.001,5.0025,5.0261,5.0294,5.0374,5.0392,5.0412,5.045,5.0452,5.0793,5.0795,0,0,0,4.9838,4.9845,4.9903,5.0001,5.0044,5.0017,5.0034,5.0283,5.0304,5.0395,5.0416,5.0451,5.0455,5.0791,5.0794,5.0854,0,0,0,4.983,4.9823,4.9898,4.9887,5.0039,5.0167,5.0051,5.0288,5.0315,5.0414,5.0452,5.0458,5.079,5.0793,5.0849,5.0886,0,0,0,4.9797,4.9819,4.9853,4.9885,4.9986,5.0164,5.0198,5.0295,5.0328,5.0447,5.0459,5.0788,5.0792,5.0844,5.0878,5.0972,0,0,0,4.9755,4.9902,4.9853,5.0025,4.9984,5.0199,5.0197,5.0358,5.0467,5.0453,5.079,5.0794,5.0842,5.0873,5.0967,5.1048,5.108,0,0,4.9928,4.9922,5.0025,4.9989,5.0207,5.0165,5.0392,5.0511,5.054,5.0708,5.0717,5.085,5.0878,5.0971,5.1262,5.1287,0,0,0,5.0072,5.0146,5.0209,5.0312,5.0408,5.0493,5.058,5.0624,5.0767,5.0623,5.0909,5.0926,5.0982,5.1022,5.1043,5.1093,5.0811,5.081,5.081,5.0287,5.0319,5.0491,5.0552,5.0652,5.0741,5.0825,5.0899,5.09,5.0968,5.1018,5.1191,5.1237,5.1253,5.1304,5.1062,5.1062,5.1063,5.1063,5.0544,5.0655,5.0654,5.0822,5.0854,5.0994,5.1085,5.1081,5.1216,5.1155,5.1206,5.1137,5.1279,5.1326,5.1068,5.1067,5.1066,5.1066,5.1065,5.069,5.0748,5.08,5.0954,5.1069,5.1124,5.1254,5.1278,5.1301,5.1351,5.1408,5.1407,5.141,5.1376,5.1377,5.1377,5.1378,5.1378,5.1379,5.082,5.0877,5.0985,5.11,5.117,5.1265,5.1355,5.1425,5.1507,5.1514,5.1515,5.151,5.1287,5.1231,5.1388,5.1386,5.1385,5.1384,5.1384,5.1072,5.102,5.1186,5.1257,5.1393,5.1506,5.1535,5.1674,5.1734,5.1798,5.1783,5.1613,5.1608,5.1591,5.1546,5.1774,5.1774,5.1774,5.1774,5.1196,5.1196,5.1373,5.1484,5.1595,5.1639,5.1826,5.1897,5.1962,5.2002,5.1972,5.1912,5.1894,5.19,5.1876,5.1834,5.2131,5.2132,5.2132,5.1353,5.1365,5.1521,5.1586,5.1694,5.1786,5.1964,5.209,5.2153,5.2147,5.2033,5.2018,5.1923,5.189,5.1882,5.1846,5.1768,0,0]}]]